Weather History for Whiteville, NC

Change the Weather History Date:

Tuesday, April 29, 2014

  Actual Average (KLBT) Record (KLBT)
Temperature  
Mean Temperature 76 °F 65 °F  
Max Temperature 84 °F 78 °F 88 °F (2002)
Min Temperature 67 °F 52 °F 41 °F (2004)
Degree Days  
Heating Degree Days 0 3  
Month to date heating degree days 150  
Since 1 July heating degree days 2726  
Cooling Degree Days 10 3  
Month to date cooling degree days 53  
Year to date cooling degree days 66  
Growing Degree Days 26 (Base 50)    
Moisture  
Dew Point 69 °F    
Average Humidity 82    
Maximum Humidity 97    
Minimum Humidity 61    
Precipitation  
Precipitation 0.01 in 0.07 in 1.07 in (2013)
Month to date precipitation 2.75  
Year to date precipitation 11.95  
Sea Level Pressure  
Sea Level Pressure 29.94 in    
Wind  
Wind Speed 6 mph (South)    
Max Wind Speed 18 mph    
Max Gust Speed 25 mph    
Visibility 8 miles    
Events Rain    
T = Trace of Precipitation, MM = Missing Value Source: NWS Daily Summary

Daily Weather History Graph

Daily Weather History Graph

Search for Another Location

Airport:

Trip Planner

Search our weather history database for the weather conditions in past years. The results will help you decide how hot, cold, wet, or windy it might be!

Date:

Astronomy

Apr. 29, 2014 Rise Set
Actual Time 6:27 AM EDT 7:57 PM EDT
Civil Twilight 6:00 AM EDT 8:24 PM EDT
Nautical Twilight 5:28 AM EDT 8:56 PM EDT
Astronomical Twilight 4:55 AM EDT 9:29 PM EDT
Moon 6:43 AM EDT (4/29) 8:35 PM EDT (4/29)
Length of Visible Light 14h 23m
Length of Day
13h 30m
New Moon, 0% of the Moon is Illuminated
Apr 29
New Moon
May 6
First Quarter
May 14
Full
May 21
Last Quarter
May 28
New

Hourly Weather History & Observations

Time (EDT) Temp. Heat Index Dew Point Humidity Pressure Visibility Wind Dir Wind Speed Gust Speed Precip Events Conditions
12:15 AM 70.7 °F - 67.1 °F 88% 29.89 in 10.0 mi South 6.9 mph - N/A   Clear
12:35 AM 70.7 °F - 67.1 °F 88% 29.89 in 10.0 mi South 5.8 mph - N/A   Clear
12:55 AM 70.2 °F - 66.7 °F 89% 29.89 in 10.0 mi South 5.8 mph - N/A   Clear
1:15 AM 70.0 °F - 66.4 °F 88% 29.90 in 10.0 mi South 5.8 mph - N/A   Clear
1:55 AM 69.3 °F - 66.2 °F 90% 29.88 in 10.0 mi South 4.6 mph - N/A   Clear
2:15 AM 69.1 °F - 66.2 °F 91% 29.87 in 10.0 mi South 3.5 mph - N/A   Clear
2:35 AM 68.5 °F - 66.2 °F 92% 29.88 in 10.0 mi South 3.5 mph - N/A   Clear
2:55 AM 68.0 °F - 66.2 °F 94% 29.88 in 7.0 mi South 3.5 mph - N/A   Clear
3:15 AM 68.0 °F - 66.2 °F 94% 29.89 in 7.0 mi Calm Calm - N/A   Clear
3:35 AM 67.5 °F - 66.0 °F 95% 29.89 in 5.0 mi Calm Calm - N/A   Mostly Cloudy
3:55 AM 68.9 °F - 67.3 °F 95% 29.89 in 7.0 mi SSW 3.5 mph - N/A   Overcast
4:15 AM 69.3 °F - 67.6 °F 95% 29.90 in 7.0 mi SSW 3.5 mph - N/A   Overcast
4:35 AM 69.3 °F - 67.6 °F 95% 29.90 in 5.0 mi Calm Calm - N/A   Mostly Cloudy
4:55 AM 69.3 °F - 67.6 °F 95% 29.90 in 5.0 mi Calm Calm - N/A   Mostly Cloudy
5:15 AM 68.4 °F - 67.1 °F 96% 29.90 in 4.0 mi Calm Calm - N/A   Mostly Cloudy
5:35 AM 68.0 °F - 67.1 °F 97% 29.91 in 3.0 mi Calm Calm - N/A   Overcast
5:55 AM 67.5 °F - 66.4 °F 96% 29.92 in 3.0 mi Calm Calm - N/A   Overcast
6:15 AM 67.1 °F - 66.0 °F 96% 29.92 in 1.8 mi Calm Calm - N/A   Overcast
6:35 AM 68.0 °F - 67.1 °F 97% 29.93 in 1.5 mi Calm Calm - N/A   Overcast
6:55 AM 68.0 °F - 66.9 °F 96% 29.93 in 3.0 mi Calm Calm - N/A   Overcast
7:15 AM 69.1 °F - 68.0 °F 96% 29.94 in 2.5 mi Calm Calm - N/A   Overcast
7:35 AM 70.2 °F - 68.9 °F 96% 29.95 in 3.0 mi Calm Calm - N/A   Overcast
7:55 AM 71.2 °F - 69.6 °F 95% 29.96 in 4.0 mi Calm Calm - N/A   Overcast
8:15 AM 72.1 °F - 70.0 °F 93% 29.97 in 5.0 mi Calm Calm - N/A   Overcast
8:35 AM 72.9 °F - 70.3 °F 92% 29.96 in 5.0 mi Calm Calm - N/A   Mostly Cloudy
8:55 AM 74.3 °F - 70.7 °F 88% 29.96 in 7.0 mi SSE 4.6 mph - N/A   Mostly Cloudy
9:15 AM 76.5 °F - 71.2 °F 84% 29.96 in 10.0 mi South 6.9 mph - N/A   Scattered Clouds
9:35 AM 78.1 °F - 70.9 °F 78% 29.96 in 10.0 mi South 9.2 mph - N/A   Scattered Clouds
9:55 AM 79.2 °F - 70.5 °F 75% 29.96 in 10.0 mi South 8.1 mph - N/A   Clear
10:15 AM 80.4 °F 83.8 °F 70.2 °F 71% 29.95 in 10.0 mi South 8.1 mph - N/A   Scattered Clouds
10:35 AM 81.5 °F 84.9 °F 69.4 °F 67% 29.95 in 10.0 mi South 11.5 mph 16.1 mph N/A   Clear
10:55 AM 82.6 °F 85.5 °F 67.8 °F 61% 29.95 in 10.0 mi South 9.2 mph 16.1 mph N/A   Scattered Clouds
11:10 AM 82.8 °F 85.8 °F 68.0 °F 61% 29.95 in 10.0 mi SSW 10.4 mph - N/A   Scattered Clouds
11:35 AM 84.2 °F 88.1 °F 69.3 °F 61% 29.95 in 10.0 mi SSE 8.1 mph 18.4 mph N/A   Scattered Clouds
11:55 AM 84.0 °F 88.1 °F 69.6 °F 62% 29.95 in 10.0 mi South 10.4 mph - N/A   Scattered Clouds
12:15 PM 83.7 °F 87.7 °F 70.0 °F 63% 29.95 in 10.0 mi SSE 9.2 mph - N/A   Scattered Clouds
12:35 PM 82.8 °F 87.2 °F 70.7 °F 67% 29.94 in 10.0 mi SE 9.2 mph - N/A   Scattered Clouds
12:55 PM 82.8 °F 87.2 °F 70.7 °F 67% 29.94 in 10.0 mi SSE 12.7 mph 17.3 mph N/A   Scattered Clouds
1:15 PM 83.7 °F 88.3 °F 70.9 °F 65% 29.94 in 10.0 mi SSE 11.5 mph 17.3 mph N/A   Clear
1:35 PM 83.8 °F 88.6 °F 71.1 °F 65% 29.93 in 10.0 mi South 12.7 mph 19.6 mph N/A   Scattered Clouds
1:50 PM 84.9 °F 89.7 °F 70.7 °F 62% 29.93 in 10.0 mi SSE 12.7 mph 20.7 mph N/A   Clear
2:15 PM 84.7 °F 89.1 °F 70.2 °F 61% 29.92 in 10.0 mi South 16.1 mph 23.0 mph N/A   Clear
2:35 PM 83.1 °F 87.6 °F 70.7 °F 66% 29.93 in 10.0 mi South 16.1 mph 23.0 mph N/A   Scattered Clouds
2:55 PM 82.2 °F 86.2 °F 70.3 °F 67% 29.93 in 10.0 mi South 17.3 mph 25.3 mph N/A   Scattered Clouds
3:15 PM 81.3 °F 85.0 °F 70.3 °F 69% 29.94 in 10.0 mi South 13.8 mph 23.0 mph N/A   Mostly Cloudy
3:35 PM 80.8 °F 84.6 °F 70.9 °F 72% 29.93 in 10.0 mi SSE 18.4 mph 24.2 mph N/A   Mostly Cloudy
3:55 PM 81.9 °F 86.2 °F 71.1 °F 70% 29.92 in 10.0 mi SSE 11.5 mph 20.7 mph N/A   Mostly Cloudy
4:15 PM 80.8 °F 84.4 °F 70.7 °F 71% 29.92 in 10.0 mi SSE 16.1 mph 24.2 mph N/A   Mostly Cloudy
4:35 PM 80.2 °F 83.7 °F 70.7 °F 73% 29.92 in 10.0 mi South 13.8 mph 23.0 mph N/A   Mostly Cloudy
4:55 PM 79.5 °F - 70.3 °F 73% 29.92 in 10.0 mi South 13.8 mph 25.3 mph N/A   Mostly Cloudy
5:15 PM 79.0 °F - 70.7 °F 76% 29.93 in 10.0 mi South 15.0 mph 25.3 mph N/A   Mostly Cloudy
5:35 PM 79.0 °F - 70.5 °F 75% 29.93 in 10.0 mi South 16.1 mph 24.2 mph N/A   Mostly Cloudy
6:35 PM 78.8 °F - 70.3 °F 75% 29.95 in 10.0 mi South 11.5 mph 23.0 mph N/A   Mostly Cloudy
6:55 PM 77.9 °F - 70.7 °F 78% 29.96 in 10.0 mi South 11.5 mph 19.6 mph N/A   Overcast
7:15 PM 77.9 °F - 70.9 °F 79% 29.97 in 10.0 mi South 10.4 mph - N/A   Overcast
7:35 PM 77.2 °F - 70.9 °F 81% 29.98 in 10.0 mi South 11.5 mph 17.3 mph N/A   Mostly Cloudy
7:55 PM 76.6 °F - 71.6 °F 84% 29.99 in 10.0 mi South 6.9 mph - N/A Rain Light Rain
8:15 PM 75.9 °F - 71.8 °F 87% 29.99 in 10.0 mi SSE 9.2 mph - N/A Rain Light Rain
8:35 PM 75.6 °F - 71.6 °F 87% 30.00 in 10.0 mi SSE 10.4 mph - N/A   Overcast
8:55 PM 75.6 °F - 71.6 °F 87% 30.00 in 10.0 mi SSE 8.1 mph - N/A   Overcast
9:15 PM 75.2 °F - 71.6 °F 89% 30.01 in 10.0 mi SSE 8.1 mph - N/A Rain Light Rain
9:35 PM 74.8 °F - 71.6 °F 90% 30.01 in 7.0 mi SSE 8.1 mph - N/A Rain Rain
10:35 PM 74.3 °F - 71.6 °F 91% 30.03 in 7.0 mi SSE 6.9 mph - 0.01 in Rain Light Rain
10:55 PM 74.3 °F - 71.2 °F 90% 30.03 in 10.0 mi SSE 8.1 mph - 0.01 in   Overcast
11:15 PM 73.9 °F - 71.1 °F 91% 30.04 in 10.0 mi SSE 9.2 mph - N/A   Overcast
11:35 PM 73.8 °F - 70.9 °F 91% 30.04 in 10.0 mi SSE 5.8 mph - N/A   Overcast
11:55 PM 73.6 °F - 70.7 °F 91% 30.05 in 10.0 mi South 8.1 mph - N/A   Overcast